Regional Weather Roundup
Issued by NWS

Home | Current Version | Previous Version | Text Only | Print | Product List | Glossary On
Versions: 1 2 3 4 5 6 7 8 9 10 11 12 13 14 15 16 17 18 19 20 21 22 23 24 25 26 27 28
000
ASUS45 KPSR 120310
RWRAZ

ARIZONA HOURLY REGIONAL WEATHER ROUNDUP
NATIONAL WEATHER SERVICE PHOENIX AZ
800 PM MST MON DEC 11 2017

NOTE: FAIR INDICATES FEW OR NO CLOUDS BELOW 12,000 FEET WITH NO
SIGNIFICANT WEATHER AND/OR OBSTRUCTIONS TO VISIBILITY.

AZZ001>003-036-120400-
NORTHWEST ARIZONA

CITY           SKY/WX    TMP DP  RH WIND       PRES   REMARKS
BULLHEAD CITY  CLEAR     64   1   8 N18G24    30.25S
KINGMAN        PTCLDY    39  -2  17 E9        30.34S WCI  33
$$

AZZ004>008-015-016-018-120400-
NORTH CENTRAL ARIZONA

CITY           SKY/WX    TMP DP  RH WIND       PRES   REMARKS
GRAND CANYON   PTCLDY    22 -18  16 NE8       30.46S WCI  12
WILLIAMS       CLEAR     28 -11  17 SE7       30.42R WCI  21
PRESCOTT       PTCLDY    37  -2  19 S5        30.37S WCI  33
FLAGSTAFF      PTCLDY    24  -9  23 CALM      30.44F
PAYSON         CLEAR     46 -15   7 NE6       30.36R
PAGE           CLEAR     36  14  40 CALM      30.45R
$$

AZZ009>014-017-120400-
NORTHEAST ARIZONA

CITY           SKY/WX    TMP DP  RH WIND       PRES   REMARKS
WINSLOW        MOCLDY    23  -7  26 S3        30.44R
SAINT JOHNS    MOCLDY    22  -4  32 S6        30.44R WCI  14
WINDOW ROCK    CLEAR     20  -7  30 CALM      30.45R
SHOW LOW       MOCLDY    30  -2  24 CALM      30.45S
$$

AZZ540-542>544-546-548-120400-
GREATER PHOENIX AREA

CITY           SKY/WX    TMP DP  RH WIND       PRES   REMARKS
PHOENIX        PTCLDY    63  20  19 W3        30.18S
BUCKEYE        PTCLDY    55   5  13 NW7       30.20S
GLENDALE       PTCLDY    61  14  16 CALM      30.21R
LUKE AFB       PTCLDY    54  27  36 NW8       30.18S
DEER VALLEY    CLEAR     57   6  13 CALM      30.20S
SCOTTSDALE     PTCLDY    58  23  26 CALM      30.21S
MESA-FALCON    MOCLDY    61  18  18 CALM      30.21R
MESA-GATEWAY   CLEAR     61  12  15 N6        30.21S
CHANDLER       CLEAR     59  23  25 CALM      30.20R
$$

AZZ539-553-120400-
SOUTHWEST MARICOPA COUNTY AND PINAL COUNTY

CITY           SKY/WX    TMP DP  RH WIND       PRES   REMARKS
CASA GRANDE    NOT AVBL
GILA BEND      MOCLDY    64  10  12 CALM      30.18S
$$

AZZ503-504-507>509-120400-
SOUTHEAST ARIZONA

CITY           SKY/WX    TMP DP  RH WIND       PRES   REMARKS
TUCSON         CLOUDY    63  20  19 SE5       30.25S
DAVIS-MONTHAN  CLOUDY    57  20  23 SE7       30.23S
RYAN FIELD     CLEAR     61  19  20 S7        30.25S
NOGALES        MOCLDY    59  19  21 NE8       30.26S
SIERRA VISTA   CLOUDY    50  18  29 E7        30.34R
DOUGLAS        CLOUDY    49  20  31 E6        30.32R
SAFFORD        PTCLDY    48   8  19 SE5       30.29S
$$

AZZ532-120400-
SOUTHWEST ARIZONA

CITY           SKY/WX    TMP DP  RH WIND       PRES   REMARKS
YUMA           CLEAR     65   7  10 N7        30.19R
$$

CAZ041-043-047-048-061-525>527-560>570-120400-
SOUTHERN CALIFORNIA

CITY           SKY/WX    TMP DP  RH WIND       PRES   REMARKS
DOWNTOWN L.A.  CLEAR     62  25  24 CALM      30.17R
L.A. AIRPORT   CLEAR     63  41  44 W7        30.18R
SAN DIEGO      PTCLDY    66  30  26 CALM      30.18R
BURBANK        CLEAR     61  20  20 N3        30.19R
ONTARIO        MOCLDY    58  17  20 W3        30.20R
RIVERSIDE      CLEAR     66   2   8 E5        30.21R
PALM SPRINGS   CLEAR     68   9  10 W3        30.24R
EL CENTRO NAS  PTCLDY    56  17  21 W7        30.21R
IMPERIAL       FAIR      60  22  23 W6        30.19R
BLYTHE         CLEAR     57   0  10 N12       30.22R
NEEDLES        CLEAR     56  -1  10 NW8       30.27R
$$

NVZ020-UTZ003-120400-
SOUTHERN NEVADA-UTAH

CITY           SKY/WX    TMP DP  RH WIND       PRES   REMARKS
LAS VEGAS      CLEAR     53   1  12 S5        30.33R
SALT LAKE CITY SNOW      27  25  92 CALM      30.59R VSB 1/4
$$

NMZ009-TXZ055-120400-
NEW MEXICO-WEST TEXAS

CITY           SKY/WX    TMP DP  RH WIND       PRES   REMARKS
ALBUQUERQUE    CLOUDY    36   2  23 S3        30.40R
EL PASO        MOCLDY    43  26  51 E6        30.33R
$$


........................KEY........................
SKY/WX - SKY CONDITION/WEATHER
TMP    - TEMPERATURE IN FAHRENHEIT
DP     - DEW POINT IN FAHRENHEIT
RH     - RELATIVE HUMIDITY IN PERCENT
WIND   - DIRECTION AND SPEED IN MILES PER HOUR (MPH)
VRB    - VARIABLE WIND DIRECTION
PRES   - MEAN SEA LEVEL PRESSURE IN INCHES OF MERCURY
         F - FALLING PRESSURE   R - RISING PRESSURE
         S - STEADY PRESSURE
VSB    - VISIBILITY IN MILES
HX     - HEAT INDEX IN FAHRENHEIT
WCI    - WIND CHILL INDEX IN FAHRENHEIT
TC     - TEMPERATURE IN CELSIUS WHICH IS ALSO KNOWN AS
         TEMPERATURE IN CENTIGRADE
AFB    - AIR FORCE BASE
         LUKE AFB IS LUKE AIR FORCE BASE
         DAVIS-MONTHAN IS DAVIS-MONTHAN AIR FORCE BASE
NAS    - NAVAL AIR STATION
         EL CENTRO NAS IS EL CENTRO NAVAL AIR STATION
N/A    - NOT AVAILABLE





USA.gov is the U.S. government's official web portal to all federal, state and local government web resources and services.